Regional Weather Roundup
Issued by NWS

Home | Current Version | Previous Version | Graphics & Text | Print | Product List | Glossary On
Versions: 1 2 3 4 5 6 7 8 9 10 11 12 13 14 15 16 17 18 19 20 21 22 23 24 25 26 27 28 29 30 31 32 33 34 35 36 37 38 39 40 41 42 43 44 45 46 47 48 49 50
000
ASUS45 KTFX 070810
RWRMT
MONTANA REGIONAL WEATHER ROUNDUP
NATIONAL WEATHER SERVICE GREAT FALLS MT
100 AM MST WED DEC 07 2016

NOTE: "FAIR" INDICATES FEW OR NO CLOUDS BELOW 12000 FEET WITH NO
SIGNIFICANT WEATHER AND/OR OBSTRUCTIONS TO VISIBILITY.

MTZ001>007-043-070900-
WEST OF THE DIVIDE

CITY           SKY/WX    TMP DP  RH WIND       PRES   REMARKS
KALISPELL      CLOUDY     8  -3  61 N16G23    30.27R WCI -10
MISSOULA       CLOUDY    13   0  56 SE17      30.25R WCI  -4
BUTTE          CLOUDY    -1  -6  79 CALM      30.07R
MULLAN PASS    CLOUDY     6   2  83 SE5       29.98R
ANACONDA         N/A      0  -6  78 SW3       30.14R
DEER LODGE       N/A      1  -8  66 NW9       30.17R WCI -14
EUREKA           N/A     -2  -8  78 CALM      30.34R
HAMILTON         N/A     12   5  73 SE3       30.19R
LIBBY            N/A     16   1  53 E8        30.29R WCI   5
RONAN            N/A     16   7  67 CALM      30.23R
$$

MTZ008-052>055-070900-
SOUTHWEST MONTANA

CITY           SKY/WX    TMP DP  RH WIND       PRES   REMARKS
BOZEMAN        FLURRIES   5   0  79 SW7       30.17R WCI  -7
DILLON         CLOUDY     2  -4  76 NE12      30.07R WCI -15
W YELLOWSTONE  CLOUDY   -17 -22  76 SW3       29.92R
ENNIS          CLOUDY     0  -4  85 NW5       30.12R
THREE FORKS      N/A      6 -51   5 N3        30.16R
TWIN BRIDGES     N/A      1 -10  60 N12       30.07R WCI -16
$$

MTZ009-010-012-014-046-048-049-054-070900-
EAST SLOPES AND CENTRAL MONTANA

CITY           SKY/WX    TMP DP  RH WIND       PRES   REMARKS
CUT BANK       CLEAR     -8 -13  78 NW5       30.31R
GREAT FALLS    CLOUDY    -3  -9  75 W7        30.33R WCI -16
MALMSTROM AFB  FLURRIES  -2  -7  76 W7        30.36R WCI -15
HELENA         CLOUDY     2  -8  63 W9        30.28R WCI -13
BOWMANS CRNR   FLURRIES  -6 -10  82 NE2       30.24R
CHOTEAU          N/A     -2  -9  71 MISG      30.32R
CONRAD           N/A     -2  -9  72 NW8       30.31R WCI -16
FAIRFIELD      FLURRIES  -3  -9  75 NW6       30.30R WCI -15
POWER          FLURRIES  -4  -9  79 NW7       30.30R WCI -18
RAYNESFORD     FLURRIES  -4  -9  81 W8        30.29R WCI -19
ULM            FLURRIES  -3  -7  84 NW6       30.34R WCI -15
$$

MTZ011-013-016-021-045-047-050-051-070900-
NORTH CENTRAL MONTANA

CITY           SKY/WX    TMP DP  RH WIND       PRES   REMARKS
HAVRE          CLOUDY     1  -5  75 W10       30.41R WCI -15
LEWISTOWN      CLOUDY    -5  -9  83 W10       30.24R FOG     WCI -23
N BAR RANCH      N/A     -4 -13  65 W13G20    30.17R WCI -23
CHINOOK          N/A      1  -6  71 W13       30.41R WCI -16
DENTON           N/A     -5  -9  81 N9        30.28R WCI -21
GEYSER         MOCLDY    -4  -9  79 W21G28    30.24R WCI -27
GRASS RANGE      N/A     -3  -9  74 W25G32    30.20R WCI -28
JUDITH GAP       N/A     -8 -13  80 N17       30.16R WCI -32
STANFORD         N/A     -9 -12  86 N2        30.22R
$$

MTZ017>020-022>027-061-062-070900-
NORTHEAST MONTANA

CITY           SKY/WX    TMP DP  RH WIND       PRES   REMARKS
GLASGOW        CLOUDY     3  -4  72 NW26G32   30.29R WCI -21
JORDAN           N/A     -1  -7  75 NW17G23   30.30R WCI -22
SIDNEY         CLOUDY     5  -2  72 NW30G36   30.21R WCI -19
WOLF POINT     CLOUDY     6  -3  66 W17G25    30.30R WCI -13
PLENTYWOOD       N/A      1  -4  78 NW18      30.19R WCI -19
POPLAR           N/A      5  -6  61 W12G17    30.28R WCI -11
$$

MTZ028>42-056>058-070900-
SOUTHCENTRAL AND SOUTHEAST MONTANA

CITY           SKY/WX    TMP DP  RH WIND       PRES   REMARKS
BAKER          CLOUDY    -1  -7  75 W22G30    30.18R WCI -24
BILLINGS       FLURRIES   3  -4  72 SE6       30.24R WCI  -8
LIVINGSTON     CLOUDY     2  -5  72 W6        30.14R WCI  -9
MILES CITY     CLOUDY     1  -8  66 W10       30.30R WCI -15
BIG TIMBER     CLOUDY     3  -2  78 W8        30.18R WCI -10
FORSYTH          N/A      0  -6  78 W7        30.31R WCI -13
HARLOWTON      CLOUDY    -3  -9  77 N20G28    30.16R WCI -26
LAUREL           N/A      5  -7  58 NE5       30.19R
$$

REGIONAL REPORTS...DAKOTAS

CITY           SKY/WX    TMP DP  RH WIND       PRES   REMARKS
WILLISTON      CLOUDY     4  -3  73 NW14      30.21R WCI -14
MINOT          LGT SNOW   7   3  84 W33G44    30.02R VSB 3/4 WCI -17
DICKINSON      CLOUDY    -1  -7  75 NW23G31   30.11R WCI -25
BEACH          FLURRIES   1  -2  85 W22       30.21R WCI -21
CROSBY         CLOUDY     3   0  85 NW29G38   30.18R FOG     WCI -21
TIOGA          LGT SNOW   3   0  85 NW28      30.13R WCI -21
WATFORD CITY   FLURRIES   1  -2  85 NW14      30.18S WCI -17
BISMARCK       CLOUDY     4  -1  80 W21G26    30.10R WCI -17
GRAND FORKS    LGT SNOW  16  12  84 W32G40    29.78R VSB 3/4 WCI  -5
FARGO          LGT SNOW  14   8  77 W25G36    29.86R WCI  -5
BUFFALO SD       N/A      0  -7  72 NW30G36   30.08R WCI -26
RAPID CITY     CLOUDY     3  -4  72 NW12      30.14R WCI -13
$$

REGIONAL REPORTS...WYOMING/IDAHO/WASHINGTON

CITY           SKY/WX    TMP DP  RH WIND       PRES   REMARKS
GILLETTE       CLOUDY     2  -1  88 N7        30.11R WCI -11
SHERIDAN       CLOUDY     2  -3  80 NW16      30.18R HAZE    WCI -18
BUFFALO WY     FLURRIES   4  -3  73 NW14G25   30.07R WCI -14
CODY           LGT SNOW   5  -1  76 N8        30.07R WCI  -8
YELLOWSTONE LA   N/A     -4  -7  87 CALM      29.83R
IDAHO FALLS    CLOUDY    12   3  67 NW7       30.02R WCI   1
BOISE          CLEAR     14  11  87 CALM      30.17R
SPOKANE        CLOUDY    22  12  65 E3        30.24R
$$

REGIONAL REPORTS...ALBERTA

CITY           SKY/WX    TMP DP  RH WIND       PRES   REMARKS
EDMONTON       CLEAR     -8 -17  65 NW9       30.49R WCI -25
CALGARY        PTCLDY    -8 -15  71 NW10      30.35R WCI -26
LETHBRIDGE     MOCLDY   -11 -17  77 W7        30.41R WCI -26
MEDICINE HAT   FLURRIES   0  -6  78 NW7       30.44R WCI -13
WATERTON GATE    N/A    -17 -22  76 E2          N/A
CARDSTON         N/A    -11 -18  70 SW8         N/A  WCI -28
MILK RIVER       N/A    -11 -15  84 W6          N/A  WCI -25
ONEFOUR          N/A     -4  -8  84 NW20        N/A  WCI -27
$$

REGIONAL REPORTS...SASKATCHEWAN

CITY           SKY/WX    TMP DP  RH WIND       PRES   REMARKS
SWIFT CURRENT  FLURRIES  -8 -11  84 NW20      30.26R WCI -32
REGINA         CLOUDY     1  -4  78 NW21      30.21R WCI -20
SASKATOON      PTCLDY     0  -6  78 NW16G23   30.31R WCI -21
VAL MARIE        N/A     -4 -11  71 NW12        N/A  WCI -22
ROCKGLEN         N/A     -6  -9  84 NW18G28     N/A  WCI -29
$$



USA.gov is the U.S. government's official web portal to all federal, state and local government web resources and services.